When you browse on this site, cookies collect data to enhance your experience and personalize the content and advertising you see.
Visit our Privacy Policy to learn more. By continuing to use the site, you agree to this use of cookies and data.
  • In Hungary
  • List of Countries
  • For 7 days
  • Water Temperature
  • Weather Map
  • News
  • Weather Widgets
  • user-avatar
    Login

    Hourly Weather Staroikan

    Today, 29 March, Sunday

    Time Temperature Precipitation Wind Pressure Humidity
    00:00 +9°C° 0 mm 7 mps 748 mmHg 28%
    01:00 +9°C° 0 mm 7 mps 748 mmHg 34%
    02:00 +7°C° 0 mm 8 mps 748 mmHg 41%
    03:00 +7°C° 0 mm 8 mps 748 mmHg 44%
    04:00 +6°C° 0 mm 8 mps 748 mmHg 48%
    05:00 +6°C° 0 mm 9 mps 748 mmHg 53%
    06:00 +6°C° 0 mm 9 mps 748 mmHg 50%
    07:00 +7°C° 0 mm 9 mps 748 mmHg 48%
    08:00 +8°C° 0 mm 10 mps 748 mmHg 45%
    09:00 +10°C° 0 mm 9 mps 747 mmHg 40%
    10:00 +12°C° 0 mm 9 mps 747 mmHg 35%
    11:00 +15°C° 0 mm 9 mps 747 mmHg 29%
    12:00 +16°C° 0 mm 9 mps 746 mmHg 28%
    13:00 +16°C° 0 mm 9 mps 746 mmHg 27%
    14:00 +17°C° 0 mm 9 mps 745 mmHg 26%
    15:00 +17°C° 0 mm 10 mps 745 mmHg 26%
    16:00 +17°C° 0 mm 10 mps 744 mmHg 27%
    17:00 +17°C° 0 mm 10 mps 744 mmHg 27%
    18:00 +14°C° 0 mm 10 mps 744 mmHg 27%
    19:00 +13°C° 0 mm 10 mps 744 mmHg 26%
    20:00 +12°C° 0 mm 10 mps 744 mmHg 26%
    21:00 +11°C° 0 mm 10 mps 744 mmHg 27%
    22:00 +9°C° 0 mm 10 mps 743 mmHg 28%
    23:00 +9°C° 0 mm 11 mps 743 mmHg 29%

    Tomorrow, 30 March, Monday

    Time Temperature Precipitation Wind Pressure Humidity
    00:00 +8°C° 0 mm 10 mps 743 mmHg 31%
    01:00 +8°C° 0 mm 10 mps 743 mmHg 33%
    02:00 +7°C° 0 mm 9 mps 743 mmHg 35%
    03:00 +7°C° 0 mm 9 mps 742 mmHg 36%
    04:00 +7°C° 0 mm 9 mps 742 mmHg 37%
    05:00 +7°C° 0 mm 8 mps 742 mmHg 38%
    06:00 +7°C° 0 mm 9 mps 742 mmHg 38%
    07:00 +8°C° 0 mm 9 mps 742 mmHg 37%
    08:00 +8°C° 0 mm 10 mps 742 mmHg 37%
    09:00 +11°C° 0 mm 10 mps 742 mmHg 33%
    10:00 +14°C° 0 mm 10 mps 742 mmHg 30%
    11:00 +17°C° 0 mm 10 mps 741 mmHg 27%
    12:00 +18°C° 0 mm 10 mps 741 mmHg 26%
    13:00 +19°C° 0 mm 10 mps 740 mmHg 25%
    14:00 +21°C° 0 mm 9 mps 740 mmHg 23%
    15:00 +21°C° 0 mm 10 mps 739 mmHg 24%
    16:00 +21°C° 0 mm 10 mps 739 mmHg 25%
    17:00 +19°C° 0 mm 10 mps 739 mmHg 26%
    18:00 +18°C° 0 mm 10 mps 739 mmHg 26%
    19:00 +17°C° 0 mm 10 mps 739 mmHg 27%
    20:00 +14°C° 0 mm 10 mps 738 mmHg 28%
    21:00 +14°C° 0 mm 10 mps 738 mmHg 28%
    22:00 +13°C° 0 mm 10 mps 738 mmHg 28%
    23:00 +13°C° 0 mm 10 mps 737 mmHg 29%

    Day after tomorrow, 31 March, Tuesday

    Time Temperature Precipitation Wind Pressure Humidity
    00:00 +12°C° 0 mm 10 mps 737 mmHg 31%
    01:00 +12°C° 0 mm 9 mps 736 mmHg 32%
    02:00 +12°C° 0 mm 9 mps 736 mmHg 34%
    03:00 +12°C° 0 mm 9 mps 735 mmHg 34%
    04:00 +12°C° 0 mm 9 mps 735 mmHg 34%
    05:00 +12°C° 0 mm 9 mps 735 mmHg 34%
    06:00 +12°C° 0 mm 9 mps 735 mmHg 33%
    07:00 +13°C° 0 mm 9 mps 735 mmHg 31%
    08:00 +15°C° 0 mm 9 mps 735 mmHg 30%
    09:00 +16°C° 0 mm 9 mps 735 mmHg 28%
    10:00 +18°C° 0 mm 8 mps 735 mmHg 26%
    11:00 +20°C° 0 mm 7 mps 735 mmHg 24%
    12:00 +21°C° 0 mm 6 mps 735 mmHg 24%
    13:00 +22°C° 0 mm 6 mps 735 mmHg 23%
    14:00 +23°C° 0 mm 5 mps 735 mmHg 22%
    15:00 +23°C° 0 mm 4 mps 735 mmHg 22%
    16:00 +24°C° 0 mm 3 mps 735 mmHg 22%
    17:00 +24°C° 0 mm 2 mps 736 mmHg 22%
    18:00 +21°C° 0 mm 2 mps 736 mmHg 36%
    19:00 +20°C° 0 mm 2 mps 736 mmHg 49%
    20:00 +18°C° 0 mm 3 mps 736 mmHg 62%
    21:00 +18°C° 0.1 mm 3 mps 737 mmHg 64%
    22:00 +18°C° 0.1 mm 3 mps 737 mmHg 65%
    23:00 +18°C° 0.1 mm 3 mps 737 mmHg 67%

    1 April, Wednesday

    Time Temperature Precipitation Wind Pressure Humidity
    00:00 +17°C° 0.1 mm 3 mps 737 mmHg 69%
    01:00 +16°C° 0.1 mm 3 mps 737 mmHg 71%
    02:00 +16°C° 0.1 mm 3 mps 737 mmHg 74%
    03:00 +16°C° 0.3 mm 3 mps 737 mmHg 74%
    04:00 +14°C° 0.3 mm 3 mps 737 mmHg 74%
    05:00 +14°C° 0.3 mm 3 mps 737 mmHg 74%
    06:00 +15°C° 0 mm 4 mps 738 mmHg 71%
    07:00 +16°C° 0 mm 5 mps 738 mmHg 68%
    08:00 +16°C° 0 mm 6 mps 738 mmHg 64%
    09:00 +17°C° 0.1 mm 8 mps 739 mmHg 60%
    10:00 +18°C° 0.1 mm 9 mps 739 mmHg 55%
    11:00 +19°C° 0.1 mm 10 mps 740 mmHg 50%
    12:00 +18°C° 0.2 mm 10 mps 740 mmHg 56%
    13:00 +16°C° 0.2 mm 9 mps 740 mmHg 61%
    14:00 +15°C° 0.2 mm 8 mps 741 mmHg 67%
    15:00 +16°C° 0 mm 8 mps 741 mmHg 58%
    16:00 +17°C° 0 mm 7 mps 741 mmHg 50%
    17:00 +19°C° 0 mm 6 mps 742 mmHg 41%
    18:00 +17°C° 0 mm 5 mps 742 mmHg 41%
    19:00 +17°C° 0 mm 5 mps 742 mmHg 41%
    20:00 +16°C° 0 mm 5 mps 743 mmHg 41%
    21:00 +15°C° 0 mm 5 mps 743 mmHg 45%
    22:00 +15°C° 0 mm 5 mps 743 mmHg 48%
    23:00 +14°C° 0 mm 5 mps 743 mmHg 52%

    2 April, Thursday

    Time Temperature Precipitation Wind Pressure Humidity
    00:00 +13°C° 0 mm 5 mps 744 mmHg 55%
    01:00 +13°C° 0 mm 5 mps 744 mmHg 57%
    02:00 +13°C° 0 mm 5 mps 744 mmHg 60%
    03:00 +12°C° 0 mm 4 mps 744 mmHg 63%
    04:00 +12°C° 0 mm 3 mps 745 mmHg 67%
    05:00 +11°C° 0 mm 3 mps 745 mmHg 70%
    06:00 +13°C° 0 mm 2 mps 745 mmHg 70%
    07:00 +13°C° 0 mm 2 mps 745 mmHg 70%
    08:00 +13°C° 0 mm 1 mps 746 mmHg 69%
    09:00 +15°C° 0 mm 1 mps 746 mmHg 62%
    10:00 +16°C° 0 mm 2 mps 746 mmHg 54%
    11:00 +18°C° 0 mm 2 mps 746 mmHg 46%
    12:00 +18°C° 0 mm 2 mps 745 mmHg 43%
    13:00 +19°C° 0 mm 2 mps 745 mmHg 39%
    14:00 +21°C° 0 mm 1 mps 745 mmHg 36%
    15:00 +21°C° 0 mm 1 mps 745 mmHg 34%
    16:00 +22°C° 0 mm 1 mps 744 mmHg 33%
    17:00 +20°C° 0 mm 0 mps 744 mmHg 32%
    18:00 +21°C° 0 mm 1 mps 744 mmHg 34%
    19:00 +19°C° 0 mm 2 mps 744 mmHg 37%
    20:00 +18°C° 0 mm 3 mps 744 mmHg 40%
    21:00 +17°C° 0 mm 3 mps 744 mmHg 41%
    22:00 +15°C° 0 mm 4 mps 744 mmHg 42%
    23:00 +15°C° 0 mm 4 mps 744 mmHg 43%

    3 April, Friday

    Time Temperature Precipitation Wind Pressure Humidity
    00:00 +14°C° 0 mm 4 mps 744 mmHg 45%
    01:00 +14°C° 0 mm 4 mps 744 mmHg 47%
    02:00 +14°C° 0 mm 4 mps 743 mmHg 49%
    03:00 +13°C° 0 mm 4 mps 743 mmHg 51%
    04:00 +13°C° 0 mm 4 mps 743 mmHg 53%
    05:00 +13°C° 0 mm 4 mps 743 mmHg 55%
    06:00 +14°C° 0 mm 4 mps 743 mmHg 52%
    07:00 +15°C° 0 mm 4 mps 743 mmHg 49%
    08:00 +17°C° 0 mm 4 mps 743 mmHg 46%
    09:00 +19°C° 0 mm 3 mps 743 mmHg 40%
    10:00 +21°C° 0 mm 3 mps 743 mmHg 33%
    11:00 +24°C° 0 mm 3 mps 743 mmHg 27%
    12:00 +24°C° 0 mm 2 mps 742 mmHg 26%
    13:00 +25°C° 0 mm 1 mps 742 mmHg 24%
    14:00 +24°C° 0 mm 0 mps 742 mmHg 23%
    15:00 +26°C° 0 mm 1 mps 742 mmHg 22%
    16:00 +26°C° 0 mm 2 mps 742 mmHg 22%
    17:00 +27°C° 0 mm 3 mps 741 mmHg 22%
    18:00 +25°C° 0 mm 3 mps 741 mmHg 25%
    19:00 +23°C° 0 mm 2 mps 741 mmHg 29%
    20:00 +21°C° 0 mm 2 mps 741 mmHg 32%
    21:00 +20°C° 0 mm 3 mps 741 mmHg 33%
    22:00 +20°C° 0 mm 3 mps 741 mmHg 34%
    23:00 +19°C° 0 mm 4 mps 741 mmHg 36%
    Show more